Location: Fxbg
(38.3018°N, 77.4708°W)
Time: 00:16:53
(UTC-04:00)

ISS - Visible Passes

Search period start: 24 October 2017 00:00
Search period end: 03 November 2017 00:00
Orbit: 400 x 408 km, 51.6° (Epoch: 24 October)

Date Brightness Start Highest point End Pass type
(mag) Time Alt. Az. Time Alt. Az. Time Alt. Az.
27 Oct -0.5 06:30:56 10° SSE 06:32:01 11° SE 06:33:06 10° ESE visible
29 Oct -1.8 06:20:33 10° SSW 06:23:23 28° SE 06:26:15 10° ENE visible
30 Oct -1.0 05:30:02 13° SSE 05:31:09 14° SE 05:33:00 10° E visible
30 Oct -3.6 07:04:08 10° WSW 07:07:18 51° NW 07:10:29 10° NE visible
31 Oct -3.8 06:13:25 30° SW 06:14:51 79° SE 06:18:07 10° NE visible
01 Nov -1.5 05:23:50 24° E 05:23:50 24° E 05:25:31 10° ENE visible
01 Nov -2.5 06:56:31 11° W 06:59:00 24° NNW 07:01:45 10° NNE visible
02 Nov -3.2 06:06:44 40° NNW 06:06:44 40° NNW 06:09:32 10° NE visible
